| time (UTC) | temp C | wind direction | speed KPH | gust KPH | rain 1hr cm | rain 24hr cm | rain mn cm | humidity % | barometer mb |
| 20260507141527 | 19 | 161 | 4.8 | 14.5 | 0.00 | 0.00 | 0.00 | 76 | 1010.4 |
| 20260507140028 | 19 | 127 | 9.7 | 19.3 | 0.00 | 0.00 | 0.00 | 72 | 1010.4 |
| 20260507134529 | 18 | 140 | 16.1 | 24.1 | 0.00 | 0.00 | 0.00 | 73 | 1010.4 |
| 20260507133030 | 19 | 121 | 14.5 | 20.9 | 0.00 | 0.00 | 0.00 | 71 | 1010.6 |
| 20260507131533 | 20 | 101 | 11.3 | 19.3 | 0.00 | 0.00 | 0.00 | 68 | 1010.6 |
| 20260507130028 | 21 | 114 | 14.5 | 24.1 | 0.00 | 0.00 | 0.00 | 64 | 1010.8 |
| 20260507124529 | 21 | 86 | 14.5 | 25.7 | 0.00 | 0.00 | 0.00 | 63 | 1010.8 |
| 20260507123038 | 21 | 60 | 12.9 | 19.3 | 0.00 | 0.00 | 0.00 | 63 | 1011.0 |
| 20260507121530 | 21 | 90 | 11.3 | 22.5 | 0.00 | 0.00 | 0.00 | 63 | 1011.1 |
| 20260507120040 | 20 | 113 | 11.3 | 20.9 | 0.00 | 0.00 | 0.00 | 64 | 1011.4 |
| 20260507114527 | 20 | 75 | 8.0 | 17.7 | 0.00 | 0.00 | 0.00 | 65 | 1011.2 |
| 20260507113039 | 20 | 120 | 9.7 | 19.3 | 0.00 | 0.00 | 0.00 | 65 | 1011.5 |
| 20260507111530 | 20 | 70 | 8.0 | 17.7 | 0.00 | 0.00 | 0.00 | 67 | 1011.6 |
| 20260507110031 | 20 | 88 | 11.3 | 22.5 | 0.00 | 0.00 | 0.00 | 67 | 1011.7 |
| 20260507104528 | 20 | 141 | 9.7 | 22.5 | 0.00 | 0.00 | 0.00 | 67 | 1011.8 |
| 20260507103027 | 21 | 70 | 9.7 | 19.3 | 0.00 | 0.00 | 0.00 | 67 | 1011.9 |
| 20260507101530 | 20 | 126 | 8.0 | 20.9 | 0.00 | 0.00 | 0.00 | 68 | 1011.8 |
| 20260507100036 | 20 | 66 | 14.5 | 20.9 | 0.00 | 0.00 | 0.00 | 67 | 1012.1 |
| 20260507094528 | 20 | 113 | 11.3 | 19.3 | 0.00 | 0.00 | 0.00 | 67 | 1011.8 |
| 20260507093030 | 20 | 75 | 12.9 | 22.5 | 0.00 | 0.00 | 0.00 | 67 | 1012.1 |
| 20260507091527 | 20 | 86 | 9.7 | 24.1 | 0.00 | 0.00 | 0.00 | 68 | 1012.0 |
| 20260507090029 | 20 | 109 | 9.7 | 22.5 | 0.00 | 0.00 | 0.00 | 69 | 1012.1 |
| 20260507084528 | 20 | 89 | 9.7 | 24.1 | 0.00 | 0.00 | 0.00 | 69 | 1012.2 |
| 20260507083028 | 20 | 77 | 11.3 | 17.7 | 0.00 | 0.00 | 0.00 | 68 | 1012.2 |
| 20260507081533 | 19 | 98 | 9.7 | 17.7 | 0.00 | 0.00 | 0.00 | 70 | 1012.0 |
| 20260507080030 | 19 | 79 | 8.0 | 17.7 | 0.00 | 0.00 | 0.00 | 70 | 1012.0 |
| 20260507074533 | 19 | 120 | 9.7 | 17.7 | 0.00 | 0.00 | 0.00 | 70 | 1012.0 |
| 20260507073030 | 19 | 109 | 4.8 | 16.1 | 0.00 | 0.00 | 0.00 | 70 | 1011.8 |
| 20260507071534 | 18 | 270 | 1.6 | 4.8 | 0.00 | 0.00 | 0.00 | 72 | 1011.6 |
| 20260507070033 | 17 | 51 | 0.0 | 3.2 | 0.00 | 0.00 | 0.00 | 73 | 1011.5 |
| 20260507064540 | 17 | 0 | 0.0 | 0.0 | 0.00 | 0.00 | 0.00 | 76 | 1011.5 |
| 20260507063030 | 16 | 0 | 0.0 | 1.6 | 0.00 | 0.00 | 0.00 | 78 | 1011.5 |
| 20260507061533 | 16 | 282 | 0.0 | 1.6 | 0.00 | 0.00 | 0.00 | 80 | 1011.5 |
| 20260507060028 | 15 | 247 | 0.0 | 3.2 | 0.00 | 0.00 | 0.00 | 82 | 1011.4 |
| 20260507054528 | 15 | 276 | 0.0 | 4.8 | 0.00 | 0.00 | 0.00 | 81 | 1011.4 |
| 20260507053034 | 15 | 310 | 1.6 | 4.8 | 0.00 | 0.00 | 0.00 | 80 | 1011.5 |
| 20260507051528 | 15 | 269 | 0.0 | 4.8 | 0.00 | 0.00 | 0.00 | 81 | 1011.4 |
| 20260507050032 | 15 | 273 | 3.2 | 6.4 | 0.00 | 0.00 | 0.00 | 81 | 1011.3 |
| 20260507044529 | 15 | 266 | 1.6 | 6.4 | 0.00 | 0.00 | 0.00 | 83 | 1011.2 |
| 20260507043031 | 14 | 268 | 3.2 | 6.4 | 0.00 | 0.00 | 0.00 | 85 | 1011.2 |
| 20260507041541 | 14 | 256 | 1.6 | 6.4 | 0.00 | 0.00 | 0.00 | 84 | 1011.1 |
| 20260507040030 | 14 | 269 | 1.6 | 4.8 | 0.00 | 0.00 | 0.00 | 84 | 1011.1 |
| 20260507034540 | 14 | 309 | 1.6 | 4.8 | 0.00 | 0.00 | 0.00 | 83 | 1011.1 |
| 20260507033030 | 15 | 288 | 0.0 | 1.6 | 0.00 | 0.00 | 0.00 | 82 | 1011.0 |
| 20260507031528 | 15 | 0 | 0.0 | 1.6 | 0.00 | 0.00 | 0.00 | 81 | 1011.0 |
| 20260507030029 | 15 | 0 | 0.0 | 1.6 | 0.00 | 0.00 | 0.00 | 81 | 1011.1 |
| 20260507024532 | 16 | 0 | 0.0 | 1.6 | 0.00 | 0.00 | 0.00 | 80 | 1011.0 |
| 20260507023031 | 16 | 0 | 0.0 | 3.2 | 0.00 | 0.00 | 0.00 | 80 | 1011.1 |
| 20260507021530 | 16 | 119 | 0.0 | 1.6 | 0.00 | 0.00 | 0.00 | 79 | 1011.2 |
| 20260507020032 | 16 | 0 | 0.0 | 0.0 | 0.00 | 0.00 | 0.00 | 80 | 1011.5 |
| 20260507014528 | 16 | 0 | 0.0 | 0.0 | 0.00 | 0.00 | 0.00 | 81 | 1011.4 |
| 20260507013033 | 16 | 275 | 0.0 | 3.2 | 0.00 | 0.00 | 0.00 | 81 | 1011.6 |
| 20260507011534 | 16 | 310 | 0.0 | 3.2 | 0.00 | 0.00 | 0.00 | 81 | 1011.5 |
| 20260507010037 | 16 | 0 | 0.0 | 1.6 | 0.00 | 0.00 | 0.00 | 80 | 1011.4 |
| 20260507004530 | 16 | 73 | 0.0 | 1.6 | 0.00 | 0.00 | 0.00 | 80 | 1011.5 |
| 20260507003027 | 16 | 0 | 0.0 | 1.6 | 0.00 | 0.00 | 0.00 | 81 | 1011.6 |
| 20260507001533 | 16 | 0 | 0.0 | 1.6 | 0.00 | 0.00 | 0.00 | 81 | 1011.7 |
| 20260507000030 | 16 | 0 | 0.0 | 0.0 | 0.00 | 0.00 | 0.00 | 81 | 1011.9 |
| 20260506234544 | 16 | 0 | 0.0 | 0.0 | 0.00 | 0.00 | 0.00 | 81 | 1012.0 |
| 20260506233030 | 16 | 0 | 0.0 | 1.6 | 0.00 | 0.00 | 0.00 | 81 | 1012.1 |
| 20260506231529 | 17 | 0 | 0.0 | 1.6 | 0.00 | 0.00 | 0.00 | 81 | 1012.1 |
| 20260506230029 | 17 | 0 | 0.0 | 0.0 | 0.00 | 0.00 | 0.00 | 81 | 1012.0 |
| 20260506224530 | 17 | 73 | 0.0 | 1.6 | 0.00 | 0.00 | 0.00 | 81 | 1012.1 |
| 20260506223032 | 16 | 0 | 0.0 | 1.6 | 0.00 | 0.00 | 0.00 | 82 | 1012.1 |
| 20260506221527 | 17 | 0 | 0.0 | 3.2 | 0.00 | 0.00 | 0.00 | 81 | 1012.1 |
| 20260506220036 | 17 | 86 | 0.0 | 1.6 | 0.00 | 0.00 | 0.00 | 81 | 1012.1 |
| 20260506214530 | 17 | 0 | 0.0 | 3.2 | 0.00 | 0.00 | 0.00 | 81 | 1012.4 |
| 20260506213028 | 17 | 93 | 0.0 | 3.2 | 0.00 | 0.00 | 0.00 | 81 | 1012.4 |
| 20260506211527 | 17 | 107 | 0.0 | 3.2 | 0.00 | 0.00 | 0.00 | 80 | 1012.5 |
| 20260506210030 | 17 | 0 | 0.0 | 1.6 | 0.00 | 0.00 | 0.00 | 81 | 1012.6 |
| 20260506204535 | 17 | 0 | 0.0 | 3.2 | 0.00 | 0.00 | 0.00 | 81 | 1012.3 |
| 20260506203028 | 17 | 101 | 0.0 | 4.8 | 0.00 | 0.00 | 0.00 | 81 | 1012.3 |
| 20260506201528 | 17 | 95 | 3.2 | 4.8 | 0.00 | 0.00 | 0.00 | 81 | 1012.0 |
| 20260506200030 | 17 | 82 | 1.6 | 8.0 | 0.00 | 0.00 | 0.00 | 81 | 1011.9 |
| 20260506194535 | 17 | 107 | 3.2 | 9.7 | 0.00 | 0.00 | 0.00 | 80 | 1011.6 |
| 20260506193030 | 17 | 94 | 4.8 | 9.7 | 0.00 | 0.00 | 0.00 | 80 | 1011.4 |
| 20260506191530 | 18 | 113 | 4.8 | 12.9 | 0.00 | 0.00 | 0.00 | 79 | 1011.2 |
| 20260506190027 | 18 | 104 | 8.0 | 16.1 | 0.00 | 0.00 | 0.00 | 78 | 1011.3 |
| 20260506184530 | 18 | 96 | 8.0 | 17.7 | 0.00 | 0.00 | 0.00 | 77 | 1011.1 |
| 20260506183030 | 18 | 130 | 9.7 | 19.3 | 0.00 | 0.00 | 0.00 | 76 | 1010.9 |
| 20260506181530 | 18 | 84 | 9.7 | 22.5 | 0.00 | 0.00 | 0.00 | 75 | 1011.1 |
| 20260506180030 | 19 | 75 | 8.0 | 17.7 | 0.00 | 0.00 | 0.00 | 73 | 1011.0 |
| 20260506174529 | 19 | 95 | 9.7 | 20.9 | 0.00 | 0.00 | 0.00 | 72 | 1010.8 |
| 20260506173030 | 20 | 86 | 9.7 | 20.9 | 0.00 | 0.00 | 0.00 | 71 | 1010.8 |
| 20260506171530 | 19 | 92 | 14.5 | 29.0 | 0.00 | 0.00 | 0.00 | 71 | 1010.8 |
| 20260506170029 | 20 | 117 | 12.9 | 24.1 | 0.00 | 0.00 | 0.00 | 71 | 1010.9 |
| 20260506164528 | 20 | 70 | 14.5 | 27.4 | 0.00 | 0.00 | 0.00 | 70 | 1010.7 |
| 20260506163030 | 20 | 70 | 14.5 | 27.4 | 0.00 | 0.00 | 0.00 | 67 | 1010.4 |
| 20260506161532 | 20 | 116 | 16.1 | 29.0 | 0.00 | 0.00 | 0.00 | 66 | 1010.5 |
| 20260506160038 | 20 | 115 | 14.5 | 24.1 | 0.00 | 0.00 | 0.00 | 66 | 1010.5 |
| 20260506154532 | 20 | 129 | 17.7 | 29.0 | 0.00 | 0.00 | 0.00 | 66 | 1010.3 |
| 20260506153029 | 20 | 113 | 14.5 | 27.4 | 0.00 | 0.00 | 0.00 | 66 | 1010.5 |
| 20260506151528 | 21 | 117 | 14.5 | 29.0 | 0.00 | 0.00 | 0.00 | 66 | 1010.5 |
| 20260506150029 | 21 | 134 | 16.1 | 29.0 | 0.00 | 0.00 | 0.00 | 65 | 1010.6 |
| 20260506144527 | 21 | 63 | 16.1 | 27.4 | 0.00 | 0.00 | 0.00 | 67 | 1010.7 |
| 20260506143033 | 21 | 153 | 19.3 | 29.0 | 0.00 | 0.00 | 0.00 | 67 | 1010.7 |